Time,TemperatureF,DewpointF,PressureIn,WindDirection,WindDirectionDegrees,WindSpeedMPH,WindSpeedGustMPH,Humidity,HourlyPrecipIn,Conditions,Clouds,dailyrainin,SoftwareType,DateUTC
2013-07-13 00:02:00,80.1,66.4,29.89,SE,132,6.0,8.0,63,0.00,,,0.00,Wunderground v.1.15,2013-07-13 05:02:00,
2013-07-13 00:08:00,80.1,66.4,29.89,SE,138,6.0,8.0,63,0.00,,,0.00,Wunderground v.1.15,2013-07-13 05:08:00,
2013-07-13 00:14:00,79.9,66.6,29.89,SE,143,6.0,8.0,64,0.00,,,0.00,Wunderground v.1.15,2013-07-13 05:14:00,
2013-07-13 00:20:00,79.7,66.9,29.89,SSE,167,6.0,6.0,65,0.00,,,0.00,Wunderground v.1.15,2013-07-13 05:20:00,
2013-07-13 00:26:00,79.5,66.7,29.90,SE,131,5.0,6.0,65,0.00,,,0.00,Wunderground v.1.15,2013-07-13 05:26:00,
2013-07-13 00:32:00,79.3,67.0,29.89,South,176,5.0,6.0,66,0.00,,,0.00,Wunderground v.1.15,2013-07-13 05:32:00,
2013-07-13 00:38:00,79.0,66.7,29.89,SSE,165,5.0,6.0,66,0.00,,,0.00,Wunderground v.1.15,2013-07-13 05:38:00,
2013-07-13 00:44:00,78.7,66.8,29.89,SSE,162,5.0,8.0,67,0.00,,,0.00,Wunderground v.1.15,2013-07-13 05:44:00,
2013-07-13 00:50:00,78.4,67.0,29.89,SE,141,4.0,6.0,68,0.00,,,0.00,Wunderground v.1.15,2013-07-13 05:50:00,
2013-07-13 00:56:00,78.3,67.3,29.89,South,169,5.0,7.0,69,0.00,,,0.00,Wunderground v.1.15,2013-07-13 05:56:00,
2013-07-13 01:02:00,78.3,67.3,29.90,SE,143,5.0,6.0,69,0.00,,,0.00,Wunderground v.1.15,2013-07-13 06:02:00,
2013-07-13 01:08:00,78.1,67.1,29.90,ESE,119,5.0,6.0,69,0.00,,,0.00,Wunderground v.1.15,2013-07-13 06:08:00,
2013-07-13 01:14:00,78.0,67.4,29.90,South,173,5.0,6.0,70,0.00,,,0.00,Wunderground v.1.15,2013-07-13 06:14:00,
2013-07-13 01:20:00,78.1,67.5,29.89,SSE,152,5.0,6.0,70,0.00,,,0.00,Wunderground v.1.15,2013-07-13 06:20:00,
2013-07-13 01:26:00,78.0,67.4,29.90,South,176,5.0,7.0,70,0.00,,,0.00,Wunderground v.1.15,2013-07-13 06:26:00,
2013-07-13 01:32:00,77.9,67.3,29.90,SSE,148,5.0,6.0,70,0.00,,,0.00,Wunderground v.1.15,2013-07-13 06:32:00,
2013-07-13 01:38:00,77.6,67.4,29.90,SSE,162,4.0,7.0,71,0.00,,,0.00,Wunderground v.1.15,2013-07-13 06:38:00,
2013-07-13 01:44:00,77.4,67.3,29.90,SSW,194,4.0,6.0,71,0.00,,,0.00,Wunderground v.1.15,2013-07-13 06:44:00,
2013-07-13 01:50:00,77.3,67.6,29.90,SE,138,4.0,6.0,72,0.00,,,0.00,Wunderground v.1.15,2013-07-13 06:50:00,
2013-07-13 01:56:00,77.2,67.5,29.90,SSE,168,5.0,6.0,72,0.00,,,0.00,Wunderground v.1.15,2013-07-13 06:56:00,
2013-07-13 02:02:00,77.1,67.4,29.90,SSE,165,5.0,6.0,72,0.00,,,0.00,Wunderground v.1.15,2013-07-13 07:02:00,
2013-07-13 02:08:00,77.0,67.3,29.90,South,176,5.0,8.0,72,0.00,,,0.00,Wunderground v.1.15,2013-07-13 07:08:00,
2013-07-13 02:14:00,77.0,67.3,29.90,South,169,5.0,9.0,72,0.00,,,0.00,Wunderground v.1.15,2013-07-13 07:14:00,
2013-07-13 02:20:00,76.8,67.5,29.90,SSE,166,5.0,5.0,73,0.00,,,0.00,Wunderground v.1.15,2013-07-13 07:20:00,
2013-07-13 02:26:00,76.6,67.3,29.90,South,172,5.0,6.0,73,0.00,,,0.00,Wunderground v.1.15,2013-07-13 07:26:00,
2013-07-13 02:32:00,76.4,67.1,29.90,SE,136,5.0,6.0,73,0.00,,,0.00,Wunderground v.1.15,2013-07-13 07:32:00,
2013-07-13 02:38:00,76.2,67.3,29.90,South,174,4.0,6.0,74,0.00,,,0.00,Wunderground v.1.15,2013-07-13 07:38:00,
2013-07-13 02:44:00,75.9,67.0,29.90,SSE,167,4.0,6.0,74,0.00,,,0.00,Wunderground v.1.15,2013-07-13 07:44:00,
2013-07-13 02:50:00,75.7,67.2,29.90,SE,137,4.0,4.0,75,0.00,,,0.00,Wunderground v.1.15,2013-07-13 07:50:00,
2013-07-13 02:56:00,75.6,66.7,29.90,SSE,160,4.0,6.0,74,0.00,,,0.00,Wunderground v.1.15,2013-07-13 07:56:00,
2013-07-13 03:02:00,75.5,67.0,29.90,SSW,192,4.0,7.0,75,0.00,,,0.00,Wunderground v.1.15,2013-07-13 08:02:00,
2013-07-13 03:08:00,75.4,66.9,29.90,SE,146,4.0,7.0,75,0.00,,,0.00,Wunderground v.1.15,2013-07-13 08:08:00,
2013-07-13 03:14:00,75.3,66.8,29.90,SSW,208,5.0,6.0,75,0.00,,,0.00,Wunderground v.1.15,2013-07-13 08:14:00,
2013-07-13 03:20:00,75.1,66.6,29.90,South,172,5.0,5.0,75,0.00,,,0.00,Wunderground v.1.15,2013-07-13 08:20:00,
2013-07-13 03:26:00,74.9,66.4,29.90,South,176,5.0,6.0,75,0.00,,,0.00,Wunderground v.1.15,2013-07-13 08:26:00,
2013-07-13 03:32:00,74.6,66.1,29.90,South,170,4.0,6.0,75,0.00,,,0.00,Wunderground v.1.15,2013-07-13 08:32:00,
2013-07-13 03:38:00,74.4,66.0,29.89,SSE,162,4.0,6.0,75,0.00,,,0.00,Wunderground v.1.15,2013-07-13 08:38:00,
2013-07-13 03:44:00,74.2,66.1,29.89,South,174,3.0,6.0,76,0.00,,,0.00,Wunderground v.1.15,2013-07-13 08:44:00,
2013-07-13 03:50:00,74.0,66.0,29.89,SSE,161,4.0,6.0,76,0.00,,,0.00,Wunderground v.1.15,2013-07-13 08:50:00,
2013-07-13 03:56:00,74.0,66.0,29.90,SSE,158,4.0,6.0,76,0.00,,,0.00,Wunderground v.1.15,2013-07-13 08:56:00,
2013-07-13 04:02:00,74.0,66.0,29.89,South,184,4.0,6.0,76,0.00,,,0.00,Wunderground v.1.15,2013-07-13 09:02:00,
2013-07-13 04:08:00,74.0,66.0,29.89,South,188,5.0,6.0,76,0.00,,,0.00,Wunderground v.1.15,2013-07-13 09:08:00,
2013-07-13 04:14:00,73.9,65.9,29.89,South,179,5.0,6.0,76,0.00,,,0.00,Wunderground v.1.15,2013-07-13 09:14:00,
2013-07-13 04:20:00,73.9,65.9,29.89,South,176,4.0,4.0,76,0.00,,,0.00,Wunderground v.1.15,2013-07-13 09:20:00,
2013-07-13 04:26:00,73.5,65.8,29.89,SSE,165,3.0,6.0,77,0.00,,,0.00,Wunderground v.1.15,2013-07-13 09:26:00,
2013-07-13 04:32:00,73.3,65.7,29.89,South,169,3.0,6.0,77,0.00,,,0.00,Wunderground v.1.15,2013-07-13 09:32:00,
2013-07-13 04:38:00,73.2,65.6,29.89,South,170,2.0,6.0,77,0.00,,,0.00,Wunderground v.1.15,2013-07-13 09:38:00,
2013-07-13 04:44:00,73.1,65.5,29.89,SSW,204,2.0,6.0,77,0.00,,,0.00,Wunderground v.1.15,2013-07-13 09:44:00,
2013-07-13 04:50:00,73.3,65.7,29.90,SSW,212,3.0,6.0,77,0.00,,,0.00,Wunderground v.1.15,2013-07-13 09:50:00,
2013-07-13 04:56:00,73.2,65.6,29.90,South,184,3.0,6.0,77,0.00,,,0.00,Wunderground v.1.15,2013-07-13 09:56:00,
2013-07-13 05:02:00,73.1,65.5,29.90,South,177,3.0,6.0,77,0.00,,,0.00,Wunderground v.1.15,2013-07-13 10:02:00,
2013-07-13 05:08:00,73.0,65.4,29.90,SSW,201,4.0,6.0,77,0.00,,,0.00,Wunderground v.1.15,2013-07-13 10:08:00,
2013-07-13 05:14:00,73.0,65.4,29.90,SSW,207,3.0,6.0,77,0.00,,,0.00,Wunderground v.1.15,2013-07-13 10:14:00,
2013-07-13 05:20:00,73.1,65.5,29.90,SSW,201,3.0,3.0,77,0.00,,,0.00,Wunderground v.1.15,2013-07-13 10:20:00,
2013-07-13 05:26:00,73.3,65.7,29.90,SW,228,2.0,6.0,77,0.00,,,0.00,Wunderground v.1.15,2013-07-13 10:26:00,
2013-07-13 05:32:00,73.5,65.8,29.90,SW,216,3.0,6.0,77,0.00,,,0.00,Wunderground v.1.15,2013-07-13 10:32:00,
2013-07-13 05:38:00,73.5,65.8,29.90,SSW,204,3.0,6.0,77,0.00,,,0.00,Wunderground v.1.15,2013-07-13 10:38:00,
2013-07-13 05:44:00,73.7,66.0,29.90,SSW,208,3.0,6.0,77,0.00,,,0.00,Wunderground v.1.15,2013-07-13 10:44:00,
2013-07-13 05:50:00,73.6,65.9,29.90,SW,219,2.0,6.0,77,0.00,,,0.00,Wunderground v.1.15,2013-07-13 10:50:00,
2013-07-13 05:56:00,73.4,65.7,29.90,South,188,2.0,6.0,77,0.00,,,0.00,Wunderground v.1.15,2013-07-13 10:56:00,
2013-07-13 06:02:00,73.1,65.8,29.90,SW,225,1.0,1.0,78,0.00,,,0.00,Wunderground v.1.15,2013-07-13 11:02:00,
2013-07-13 06:08:00,72.9,65.6,29.90,WSW,250,1.0,1.0,78,0.00,,,0.00,Wunderground v.1.15,2013-07-13 11:08:00,
2013-07-13 06:14:00,72.8,65.5,29.90,West,274,0.0,1.0,78,0.00,,,0.00,Wunderground v.1.15,2013-07-13 11:14:00,
2013-07-13 06:20:00,72.6,65.7,29.90,NW,316,0.0,1.0,79,0.00,,,0.00,Wunderground v.1.15,2013-07-13 11:20:00,
2013-07-13 06:26:00,72.5,65.6,29.91,NW,319,1.0,1.0,79,0.00,,,0.00,Wunderground v.1.15,2013-07-13 11:26:00,
2013-07-13 06:32:00,72.4,65.5,29.91,NW,316,0.0,1.0,79,0.00,,,0.00,Wunderground v.1.15,2013-07-13 11:32:00,
2013-07-13 06:38:00,72.2,65.3,29.91,NW,313,0.0,1.0,79,0.00,,,0.00,Wunderground v.1.15,2013-07-13 11:38:00,
2013-07-13 06:44:00,72.5,65.6,29.91,WSW,252,0.0,0.0,79,0.00,,,0.00,Wunderground v.1.15,2013-07-13 11:44:00,
2013-07-13 06:50:00,72.7,65.8,29.91,West,269,1.0,1.0,79,0.00,,,0.00,Wunderground v.1.15,2013-07-13 11:50:00,
2013-07-13 06:56:00,72.6,65.7,29.92,WSW,246,1.0,4.0,79,0.00,,,0.00,Wunderground v.1.15,2013-07-13 11:56:00,
2013-07-13 07:02:00,72.7,65.8,29.92,WSW,254,1.0,4.0,79,0.00,,,0.00,Wunderground v.1.15,2013-07-13 12:02:00,
2013-07-13 07:08:00,72.7,65.8,29.92,NW,311,1.0,4.0,79,0.00,,,0.00,Wunderground v.1.15,2013-07-13 12:08:00,
2013-07-13 07:14:00,72.7,65.8,29.92,SW,218,0.0,4.0,79,0.00,,,0.00,Wunderground v.1.15,2013-07-13 12:14:00,
2013-07-13 07:20:00,73.0,66.5,29.92,SSW,212,1.0,1.0,80,0.00,,,0.00,Wunderground v.1.15,2013-07-13 12:20:00,
2013-07-13 07:26:00,73.4,66.5,29.92,WSW,239,1.0,4.0,79,0.00,,,0.00,Wunderground v.1.15,2013-07-13 12:26:00,
2013-07-13 07:32:00,73.8,66.9,29.92,West,263,2.0,4.0,79,0.00,,,0.00,Wunderground v.1.15,2013-07-13 12:32:00,
2013-07-13 07:38:00,74.2,67.3,29.92,WSW,250,2.0,4.0,79,0.00,,,0.00,Wunderground v.1.15,2013-07-13 12:38:00,
2013-07-13 07:44:00,74.6,67.7,29.92,WSW,248,2.0,4.0,79,0.00,,,0.00,Wunderground v.1.15,2013-07-13 12:44:00,
2013-07-13 07:50:00,75.0,67.7,29.93,SW,221,2.0,2.0,78,0.00,,,0.00,Wunderground v.1.15,2013-07-13 12:50:00,
2013-07-13 07:56:00,75.4,68.1,29.93,West,267,2.0,4.0,78,0.00,,,0.00,Wunderground v.1.15,2013-07-13 12:56:00,
2013-07-13 08:02:00,75.9,68.2,29.93,West,277,2.0,4.0,77,0.00,,,0.00,Wunderground v.1.15,2013-07-13 13:02:00,
2013-07-13 08:08:00,76.4,68.3,29.93,West,263,1.0,4.0,76,0.00,,,0.00,Wunderground v.1.15,2013-07-13 13:08:00,
2013-07-13 08:14:00,77.0,68.5,29.93,WSW,256,1.0,4.0,75,0.00,,,0.00,Wunderground v.1.15,2013-07-13 13:14:00,
2013-07-13 08:20:00,77.7,68.0,29.93,WSW,248,1.0,4.0,72,0.00,,,0.00,Wunderground v.1.15,2013-07-13 13:20:00,
2013-07-13 08:26:00,78.5,67.5,29.93,WSW,243,1.0,4.0,69,0.00,,,0.00,Wunderground v.1.15,2013-07-13 13:26:00,
2013-07-13 08:32:00,79.0,66.7,29.93,SW,235,1.0,4.0,66,0.00,,,0.00,Wunderground v.1.15,2013-07-13 13:32:00,
2013-07-13 08:38:00,79.4,66.2,29.94,SW,229,1.0,4.0,64,0.00,,,0.00,Wunderground v.1.15,2013-07-13 13:38:00,
2013-07-13 08:44:00,79.6,66.3,29.94,SW,226,2.0,4.0,64,0.00,,,0.00,Wunderground v.1.15,2013-07-13 13:44:00,
2013-07-13 08:50:00,80.0,67.2,29.94,West,269,1.0,1.0,65,0.00,,,0.00,Wunderground v.1.15,2013-07-13 13:50:00,
2013-07-13 08:56:00,80.5,65.8,29.94,West,276,1.0,4.0,61,0.00,,,0.00,Wunderground v.1.15,2013-07-13 13:56:00,
2013-07-13 09:02:00,81.4,66.7,29.94,West,271,1.0,4.0,61,0.00,,,0.00,Wunderground v.1.15,2013-07-13 14:02:00,
2013-07-13 09:08:00,82.1,66.8,29.94,NW,304,1.0,4.0,60,0.00,,,0.00,Wunderground v.1.15,2013-07-13 14:08:00,
2013-07-13 09:14:00,82.5,67.2,29.94,SW,231,1.0,4.0,60,0.00,,,0.00,Wunderground v.1.15,2013-07-13 14:14:00,
2013-07-13 09:20:00,83.0,66.7,29.94,NW,321,1.0,1.0,58,0.00,,,0.00,Wunderground v.1.15,2013-07-13 14:20:00,
2013-07-13 09:26:00,84.3,67.4,29.94,NW,320,0.0,4.0,57,0.00,,,0.00,Wunderground v.1.15,2013-07-13 14:26:00,
2013-07-13 09:32:00,86.3,67.7,29.94,NW,316,0.0,4.0,54,0.00,,,0.00,Wunderground v.1.15,2013-07-13 14:32:00,
2013-07-13 09:38:00,85.5,66.4,29.94,SSE,148,1.0,4.0,53,0.00,,,0.00,Wunderground v.1.15,2013-07-13 14:38:00,
2013-07-13 09:44:00,85.7,66.6,29.94,SE,127,1.0,4.0,53,0.00,,,0.00,Wunderground v.1.15,2013-07-13 14:44:00,
2013-07-13 09:50:00,86.1,65.3,29.94,SSE,162,1.0,1.0,50,0.00,,,0.00,Wunderground v.1.15,2013-07-13 14:50:00,
2013-07-13 09:56:00,86.9,66.0,29.95,ESE,110,1.0,4.0,50,0.00,,,0.00,Wunderground v.1.15,2013-07-13 14:56:00,
2013-07-13 10:02:00,86.7,65.8,29.94,South,180,2.0,4.0,50,0.00,,,0.00,Wunderground v.1.15,2013-07-13 15:02:00,
2013-07-13 10:08:00,86.6,65.2,29.94,SSW,198,3.0,4.0,49,0.00,,,0.00,Wunderground v.1.15,2013-07-13 15:08:00,
2013-07-13 10:14:00,86.5,65.1,29.94,South,170,3.0,4.0,49,0.00,,,0.00,Wunderground v.1.15,2013-07-13 15:14:00,
2013-07-13 10:20:00,86.7,65.3,29.94,South,190,3.0,3.0,49,0.00,,,0.00,Wunderground v.1.15,2013-07-13 15:20:00,
2013-07-13 10:26:00,87.2,65.1,29.94,SSE,155,2.0,5.0,48,0.00,,,0.00,Wunderground v.1.15,2013-07-13 15:26:00,
2013-07-13 10:32:00,87.6,65.5,29.94,ESE,120,2.0,4.0,48,0.00,,,0.00,Wunderground v.1.15,2013-07-13 15:32:00,
2013-07-13 10:38:00,88.0,64.0,29.94,South,174,2.0,4.0,45,0.00,,,0.00,Wunderground v.1.15,2013-07-13 15:38:00,
2013-07-13 10:44:00,88.0,64.6,29.94,SE,145,3.0,4.0,46,0.00,,,0.00,Wunderground v.1.15,2013-07-13 15:44:00,
2013-07-13 10:50:00,88.6,63.9,29.94,SE,145,2.0,4.0,44,0.00,,,0.00,Wunderground v.1.15,2013-07-13 15:50:00,
2013-07-13 10:56:00,88.4,63.7,29.94,SW,217,3.0,6.0,44,0.00,,,0.00,Wunderground v.1.15,2013-07-13 15:56:00,
2013-07-13 11:02:00,88.6,64.5,29.94,South,184,4.0,6.0,45,0.00,,,0.00,Wunderground v.1.15,2013-07-13 16:02:00,
2013-07-13 11:08:00,88.6,63.9,29.94,SE,133,4.0,6.0,44,0.00,,,0.00,Wunderground v.1.15,2013-07-13 16:08:00,
2013-07-13 11:14:00,88.5,64.4,29.94,SE,141,4.0,6.0,45,0.00,,,0.00,Wunderground v.1.15,2013-07-13 16:14:00,
2013-07-13 11:20:00,88.7,65.3,29.94,SSW,198,5.0,5.0,46,0.00,,,0.00,Wunderground v.1.15,2013-07-13 16:20:00,
2013-07-13 11:26:00,88.9,66.1,29.94,ESE,120,5.0,6.0,47,0.00,,,0.00,Wunderground v.1.15,2013-07-13 16:26:00,
2013-07-13 11:32:00,89.2,65.1,29.94,SSW,197,4.0,5.0,45,0.00,,,0.00,Wunderground v.1.15,2013-07-13 16:32:00,
2013-07-13 11:38:00,89.5,66.0,29.94,ESE,118,5.0,6.0,46,0.00,,,0.00,Wunderground v.1.15,2013-07-13 16:38:00,
2013-07-13 11:44:00,89.7,64.9,29.93,ESE,121,5.0,5.0,44,0.00,,,0.00,Wunderground v.1.15,2013-07-13 16:44:00,
2013-07-13 11:50:00,89.6,65.4,29.93,SW,214,4.0,4.0,45,0.00,,,0.00,Wunderground v.1.15,2013-07-13 16:50:00,
2013-07-13 11:56:00,90.0,65.8,29.93,SSE,148,4.0,6.0,45,0.00,,,0.00,Wunderground v.1.15,2013-07-13 16:56:00,
2013-07-13 12:02:00,90.0,65.8,29.93,SSE,167,5.0,9.0,45,0.00,,,0.00,Wunderground v.1.15,2013-07-13 17:02:00,
2013-07-13 12:08:00,90.0,65.8,29.93,SSE,164,6.0,9.0,45,0.00,,,0.00,Wunderground v.1.15,2013-07-13 17:08:00,
2013-07-13 12:14:00,90.4,65.5,29.93,SE,131,5.0,7.0,44,0.00,,,0.00,Wunderground v.1.15,2013-07-13 17:14:00,
2013-07-13 12:20:00,90.5,64.9,29.93,ENE,75,5.0,5.0,43,0.00,,,0.00,Wunderground v.1.15,2013-07-13 17:20:00,
2013-07-13 12:26:00,90.8,65.9,29.92,South,174,5.0,9.0,44,0.00,,,0.00,Wunderground v.1.15,2013-07-13 17:26:00,
2013-07-13 12:32:00,90.6,65.7,29.92,SSE,149,6.0,10.0,44,0.00,,,0.00,Wunderground v.1.15,2013-07-13 17:32:00,
2013-07-13 12:38:00,91.0,65.4,29.92,ESE,117,4.0,12.0,43,0.00,,,0.00,Wunderground v.1.15,2013-07-13 17:38:00,
2013-07-13 12:44:00,90.6,65.7,29.92,SSW,200,5.0,7.0,44,0.00,,,0.00,Wunderground v.1.15,2013-07-13 17:44:00,
2013-07-13 12:50:00,91.1,66.8,29.92,ESE,115,3.0,3.0,45,0.00,,,0.00,Wunderground v.1.15,2013-07-13 17:50:00,
2013-07-13 12:56:00,91.5,65.8,29.92,SE,132,5.0,9.0,43,0.00,,,0.00,Wunderground v.1.15,2013-07-13 17:56:00,
2013-07-13 13:02:00,91.9,65.5,29.91,SSE,163,5.0,6.0,42,0.00,,,0.00,Wunderground v.1.15,2013-07-13 18:02:00,
2013-07-13 13:08:00,92.4,65.3,29.91,SSW,207,4.0,6.0,41,0.00,,,0.00,Wunderground v.1.15,2013-07-13 18:08:00,
2013-07-13 13:14:00,93.2,65.3,29.91,SE,138,3.0,6.0,40,0.00,,,0.00,Wunderground v.1.15,2013-07-13 18:14:00,
2013-07-13 13:20:00,92.5,65.4,29.91,SSE,167,6.0,6.0,41,0.00,,,0.00,Wunderground v.1.15,2013-07-13 18:20:00,
2013-07-13 13:26:00,92.3,65.2,29.91,SSE,166,5.0,7.0,41,0.00,,,0.00,Wunderground v.1.15,2013-07-13 18:26:00,
2013-07-13 13:32:00,92.3,65.2,29.91,ESE,113,4.0,5.0,41,0.00,,,0.00,Wunderground v.1.15,2013-07-13 18:32:00,
2013-07-13 13:38:00,93.2,66.0,29.90,SW,215,4.0,7.0,41,0.00,,,0.00,Wunderground v.1.15,2013-07-13 18:38:00,
2013-07-13 13:44:00,92.9,65.0,29.90,SE,128,4.0,6.0,40,0.00,,,0.00,Wunderground v.1.15,2013-07-13 18:44:00,
2013-07-13 13:50:00,92.6,64.8,29.89,SW,226,4.0,4.0,40,0.00,,,0.00,Wunderground v.1.15,2013-07-13 18:50:00,
2013-07-13 13:56:00,93.2,63.8,29.89,SSE,147,4.0,6.0,38,0.00,,,0.00,Wunderground v.1.15,2013-07-13 18:56:00,
2013-07-13 14:02:00,93.5,64.1,29.89,SSE,148,4.0,4.0,38,0.00,,,0.00,Wunderground v.1.15,2013-07-13 19:02:00,
2013-07-13 14:08:00,94.8,64.5,29.88,West,264,3.0,4.0,37,0.00,,,0.00,Wunderground v.1.15,2013-07-13 19:08:00,
2013-07-13 14:14:00,94.4,64.1,29.88,NNE,27,3.0,6.0,37,0.00,,,0.00,Wunderground v.1.15,2013-07-13 19:14:00,
2013-07-13 14:20:00,94.4,64.1,29.88,SE,131,4.0,5.0,37,0.00,,,0.00,Wunderground v.1.15,2013-07-13 19:20:00,
2013-07-13 14:26:00,93.5,64.1,29.88,SE,125,3.0,5.0,38,0.00,,,0.00,Wunderground v.1.15,2013-07-13 19:26:00,
2013-07-13 14:32:00,93.5,64.1,29.87,SE,141,3.0,5.0,38,0.00,,,0.00,Wunderground v.1.15,2013-07-13 19:32:00,
2013-07-13 14:38:00,93.8,64.3,29.87,ESE,112,5.0,7.0,38,0.00,,,0.00,Wunderground v.1.15,2013-07-13 19:38:00,
2013-07-13 14:44:00,94.5,65.7,29.87,South,170,5.0,6.0,39,0.00,,,0.00,Wunderground v.1.15,2013-07-13 19:44:00,
2013-07-13 14:50:00,95.6,65.2,29.87,SSE,167,3.0,3.0,37,0.00,,,0.00,Wunderground v.1.15,2013-07-13 19:50:00,
2013-07-13 14:56:00,96.0,62.3,29.87,ESE,102,4.0,9.0,33,0.00,,,0.00,Wunderground v.1.15,2013-07-13 19:56:00,
2013-07-13 15:02:00,95.9,64.7,29.86,East,97,5.0,5.0,36,0.00,,,0.00,Wunderground v.1.15,2013-07-13 20:02:00,
2013-07-13 15:08:00,95.6,64.4,29.86,South,173,5.0,9.0,36,0.00,,,0.00,Wunderground v.1.15,2013-07-13 20:08:00,
2013-07-13 15:14:00,95.3,63.3,29.86,South,172,5.0,7.0,35,0.00,,,0.00,Wunderground v.1.15,2013-07-13 20:14:00,
2013-07-13 15:20:00,94.1,63.1,29.86,SE,136,4.0,5.0,36,0.00,,,0.00,Wunderground v.1.15,2013-07-13 20:20:00,
2013-07-13 15:26:00,93.2,61.5,29.86,North,1,4.0,6.0,35,0.00,,,0.00,Wunderground v.1.15,2013-07-13 20:26:00,
2013-07-13 15:32:00,93.2,62.3,29.86,ESE,108,4.0,13.0,36,0.00,,,0.00,Wunderground v.1.15,2013-07-13 20:32:00,
2013-07-13 15:38:00,94.8,62.1,29.86,South,173,5.0,13.0,34,0.00,,,0.00,Wunderground v.1.15,2013-07-13 20:38:00,
2013-07-13 15:44:00,95.2,60.7,29.86,SE,145,3.0,6.0,32,0.00,,,0.00,Wunderground v.1.15,2013-07-13 20:44:00,
2013-07-13 15:50:00,95.2,60.7,29.86,SE,129,5.0,7.0,32,0.00,,,0.00,Wunderground v.1.15,2013-07-13 20:50:00,
2013-07-13 15:56:00,95.5,61.0,29.85,SE,146,6.0,9.0,32,0.00,,,0.00,Wunderground v.1.15,2013-07-13 20:56:00,
2013-07-13 16:02:00,95.4,61.7,29.85,SSE,167,5.0,8.0,33,0.00,,,0.00,Wunderground v.1.15,2013-07-13 21:02:00,
2013-07-13 16:08:00,93.9,60.4,29.85,South,173,5.0,8.0,33,0.00,,,0.00,Wunderground v.1.15,2013-07-13 21:08:00,
2013-07-13 16:14:00,93.6,61.0,29.85,SE,124,4.0,5.0,34,0.00,,,0.00,Wunderground v.1.15,2013-07-13 21:14:00,
2013-07-13 16:20:00,94.8,60.3,29.85,South,175,4.0,7.0,32,0.00,,,0.00,Wunderground v.1.15,2013-07-13 21:20:00,
2013-07-13 16:26:00,94.6,61.0,29.85,SSE,166,5.0,7.0,33,0.00,,,0.00,Wunderground v.1.15,2013-07-13 21:26:00,
2013-07-13 16:32:00,95.3,59.9,29.85,SE,141,3.0,8.0,31,0.00,,,0.00,Wunderground v.1.15,2013-07-13 21:32:00,
2013-07-13 16:38:00,96.2,60.7,29.84,SSE,148,4.0,8.0,31,0.00,,,0.00,Wunderground v.1.15,2013-07-13 21:38:00,
2013-07-13 16:44:00,97.0,60.4,29.84,ESE,122,4.0,4.0,30,0.00,,,0.00,Wunderground v.1.15,2013-07-13 21:44:00,
2013-07-13 16:50:00,96.4,60.8,29.84,SE,129,5.0,5.0,31,0.00,,,0.00,Wunderground v.1.15,2013-07-13 21:50:00,
2013-07-13 16:56:00,97.0,60.4,29.84,ESE,120,4.0,5.0,30,0.00,,,0.00,Wunderground v.1.15,2013-07-13 21:56:00,
2013-07-13 17:02:00,96.6,61.0,29.84,SE,125,4.0,6.0,31,0.00,,,0.00,Wunderground v.1.15,2013-07-13 22:02:00,
2013-07-13 17:08:00,96.5,61.8,29.83,ESE,123,5.0,9.0,32,0.00,,,0.00,Wunderground v.1.15,2013-07-13 22:08:00,
2013-07-13 17:14:00,96.0,60.5,29.83,East,94,4.0,5.0,31,0.00,,,0.00,Wunderground v.1.15,2013-07-13 22:14:00,
2013-07-13 17:20:00,96.8,59.3,29.83,NNE,24,2.0,4.0,29,0.00,,,0.00,Wunderground v.1.15,2013-07-13 22:20:00,
2013-07-13 17:26:00,97.0,58.5,29.83,East,79,2.0,4.0,28,0.00,,,0.00,Wunderground v.1.15,2013-07-13 22:26:00,
2013-07-13 17:32:00,96.6,59.1,29.82,SE,141,3.0,5.0,29,0.00,,,0.00,Wunderground v.1.15,2013-07-13 22:32:00,
2013-07-13 17:38:00,96.5,59.0,29.83,SE,141,4.0,5.0,29,0.00,,,0.00,Wunderground v.1.15,2013-07-13 22:38:00,
2013-07-13 17:44:00,96.4,59.9,29.82,South,169,4.0,6.0,30,0.00,,,0.00,Wunderground v.1.15,2013-07-13 22:44:00,
2013-07-13 17:50:00,96.4,59.9,29.82,SE,127,3.0,7.0,30,0.00,,,0.00,Wunderground v.1.15,2013-07-13 22:50:00,
2013-07-13 17:56:00,96.0,59.6,29.82,SE,125,5.0,7.0,30,0.00,,,0.00,Wunderground v.1.15,2013-07-13 22:56:00,
2013-07-13 18:02:00,94.9,59.5,29.82,SSE,153,5.0,6.0,31,0.00,,,0.00,Wunderground v.1.15,2013-07-13 23:02:00,
2013-07-13 18:08:00,94.9,59.5,29.82,NNE,33,3.0,6.0,31,0.00,,,0.00,Wunderground v.1.15,2013-07-13 23:08:00,
2013-07-13 18:14:00,95.4,59.1,29.81,ESE,117,3.0,4.0,30,0.00,,,0.00,Wunderground v.1.15,2013-07-13 23:14:00,
2013-07-13 18:20:00,95.2,60.7,29.81,SSE,165,4.0,4.0,32,0.00,,,0.00,Wunderground v.1.15,2013-07-13 23:20:00,
2013-07-13 18:26:00,95.5,59.1,29.81,SE,134,2.0,4.0,30,0.00,,,0.00,Wunderground v.1.15,2013-07-13 23:26:00,
2013-07-13 18:32:00,96.1,58.7,29.81,ESE,123,1.0,4.0,29,0.00,,,0.00,Wunderground v.1.15,2013-07-13 23:32:00,
2013-07-13 18:38:00,96.0,61.4,29.81,ESE,118,1.0,4.0,32,0.00,,,0.00,Wunderground v.1.15,2013-07-13 23:38:00,
2013-07-13 18:44:00,95.7,61.1,29.81,SSE,162,3.0,8.0,32,0.00,,,0.00,Wunderground v.1.15,2013-07-13 23:44:00,
2013-07-13 18:50:00,95.1,59.7,29.81,SE,145,6.0,6.0,31,0.00,,,0.00,Wunderground v.1.15,2013-07-13 23:50:00,
2013-07-13 18:56:00,94.5,60.1,29.81,SE,141,5.0,6.0,32,0.00,,,0.00,Wunderground v.1.15,2013-07-13 23:56:00,
2013-07-13 19:02:00,94.1,59.7,29.81,ESE,120,4.0,4.0,32,0.00,,,0.00,Wunderground v.1.15,2013-07-14 00:02:00,
2013-07-13 19:08:00,94.1,59.7,29.80,East,84,3.0,4.0,32,0.00,,,0.00,Wunderground v.1.15,2013-07-14 00:08:00,
2013-07-13 19:14:00,94.1,60.6,29.80,SSE,167,3.0,4.0,33,0.00,,,0.00,Wunderground v.1.15,2013-07-14 00:14:00,
2013-07-13 19:20:00,93.6,59.3,29.81,SSE,163,4.0,4.0,32,0.00,,,0.00,Wunderground v.1.15,2013-07-14 00:20:00,
2013-07-13 19:26:00,93.3,59.9,29.80,South,170,5.0,6.0,33,0.00,,,0.00,Wunderground v.1.15,2013-07-14 00:26:00,
2013-07-13 19:32:00,93.1,60.6,29.80,SE,136,4.0,5.0,34,0.00,,,0.00,Wunderground v.1.15,2013-07-14 00:32:00,
2013-07-13 19:38:00,92.9,60.4,29.81,SSE,148,3.0,5.0,34,0.00,,,0.00,Wunderground v.1.15,2013-07-14 00:38:00,
2013-07-13 19:44:00,92.6,61.0,29.81,SE,137,3.0,4.0,35,0.00,,,0.00,Wunderground v.1.15,2013-07-14 00:44:00,
2013-07-13 19:50:00,92.2,59.8,29.81,SE,141,3.0,4.0,34,0.00,,,0.00,Wunderground v.1.15,2013-07-14 00:50:00,
2013-07-13 19:56:00,91.7,60.2,29.81,SSE,166,3.0,4.0,35,0.00,,,0.00,Wunderground v.1.15,2013-07-14 00:56:00,
2013-07-13 20:02:00,91.2,60.5,29.81,SSE,152,3.0,4.0,36,0.00,,,0.00,Wunderground v.1.15,2013-07-14 01:02:00,
2013-07-13 20:08:00,90.8,60.9,29.81,SSE,160,3.0,4.0,37,0.00,,,0.00,Wunderground v.1.15,2013-07-14 01:08:00,
2013-07-13 20:14:00,90.3,60.5,29.81,SE,139,3.0,4.0,37,0.00,,,0.00,Wunderground v.1.15,2013-07-14 01:14:00,
2013-07-13 20:20:00,89.9,60.9,29.81,SE,134,2.0,4.0,38,0.00,,,0.00,Wunderground v.1.15,2013-07-14 01:20:00,
2013-07-13 20:26:00,89.3,60.4,29.81,SSE,163,2.0,4.0,38,0.00,,,0.00,Wunderground v.1.15,2013-07-14 01:26:00,
2013-07-13 20:32:00,89.0,60.1,29.81,SSE,148,2.0,4.0,38,0.00,,,0.00,Wunderground v.1.15,2013-07-14 01:32:00,
2013-07-13 20:38:00,88.7,60.6,29.81,SE,134,1.0,4.0,39,0.00,,,0.00,Wunderground v.1.15,2013-07-14 01:38:00,
2013-07-13 20:44:00,88.0,60.7,29.81,SSE,167,1.0,4.0,40,0.00,,,0.00,Wunderground v.1.15,2013-07-14 01:44:00,
2013-07-13 20:50:00,87.3,60.7,29.81,SE,127,1.0,4.0,41,0.00,,,0.00,Wunderground v.1.15,2013-07-14 01:50:00,
2013-07-13 20:56:00,86.9,60.4,29.81,SSE,160,1.0,4.0,41,0.00,,,0.00,Wunderground v.1.15,2013-07-14 01:56:00,
2013-07-13 21:02:00,86.7,60.9,29.81,SSE,163,1.0,4.0,42,0.00,,,0.00,Wunderground v.1.15,2013-07-14 02:02:00,
2013-07-13 21:08:00,86.5,60.7,29.81,SSE,156,1.0,4.0,42,0.00,,,0.00,Wunderground v.1.15,2013-07-14 02:08:00,
2013-07-13 21:14:00,86.2,61.1,29.81,SSE,156,1.0,4.0,43,0.00,,,0.00,Wunderground v.1.15,2013-07-14 02:14:00,
2013-07-13 21:20:00,86.0,60.9,29.81,SSE,150,1.0,4.0,43,0.00,,,0.00,Wunderground v.1.15,2013-07-14 02:20:00,
2013-07-13 21:26:00,86.0,60.9,29.82,SE,141,1.0,4.0,43,0.00,,,0.00,Wunderground v.1.15,2013-07-14 02:26:00,
2013-07-13 21:32:00,85.9,60.8,29.82,SSE,148,1.0,4.0,43,0.00,,,0.00,Wunderground v.1.15,2013-07-14 02:32:00,
2013-07-13 21:38:00,86.0,60.2,29.82,SSE,148,1.0,4.0,42,0.00,,,0.00,Wunderground v.1.15,2013-07-14 02:38:00,
2013-07-13 21:44:00,85.6,60.5,29.82,SE,145,2.0,4.0,43,0.00,,,0.00,Wunderground v.1.15,2013-07-14 02:44:00,
2013-07-13 21:50:00,85.0,60.0,29.82,SSE,160,2.0,4.0,43,0.00,,,0.00,Wunderground v.1.15,2013-07-14 02:50:00,
2013-07-13 21:56:00,84.7,60.4,29.82,SSE,153,2.0,4.0,44,0.00,,,0.00,Wunderground v.1.15,2013-07-14 02:56:00,
2013-07-13 22:02:00,84.5,60.2,29.83,SSE,165,2.0,4.0,44,0.00,,,0.00,Wunderground v.1.15,2013-07-14 03:02:00,
2013-07-13 22:08:00,84.1,59.8,29.82,SSE,156,2.0,4.0,44,0.00,,,0.00,Wunderground v.1.15,2013-07-14 03:08:00,
2013-07-13 22:14:00,83.9,60.3,29.82,South,188,1.0,4.0,45,0.00,,,0.00,Wunderground v.1.15,2013-07-14 03:14:00,
2013-07-13 22:20:00,83.8,60.2,29.83,SSE,165,1.0,4.0,45,0.00,,,0.00,Wunderground v.1.15,2013-07-14 03:20:00,
2013-07-13 22:26:00,83.7,60.1,29.83,SSE,160,1.0,4.0,45,0.00,,,0.00,Wunderground v.1.15,2013-07-14 03:26:00,
2013-07-13 22:32:00,83.5,60.5,29.83,South,184,1.0,4.0,46,0.00,,,0.00,Wunderground v.1.15,2013-07-14 03:32:00,
2013-07-13 22:38:00,83.3,60.4,29.83,SE,131,2.0,4.0,46,0.00,,,0.00,Wunderground v.1.15,2013-07-14 03:38:00,
2013-07-13 22:44:00,83.2,60.3,29.83,South,184,2.0,4.0,46,0.00,,,0.00,Wunderground v.1.15,2013-07-14 03:44:00,
2013-07-13 22:50:00,83.4,60.4,29.83,SSW,209,2.0,4.0,46,0.00,,,0.00,Wunderground v.1.15,2013-07-14 03:50:00,
2013-07-13 22:56:00,83.4,60.4,29.83,SSW,195,2.0,4.0,46,0.00,,,0.00,Wunderground v.1.15,2013-07-14 03:56:00,
2013-07-13 23:02:00,83.4,60.4,29.83,SSW,204,2.0,4.0,46,0.00,,,0.00,Wunderground v.1.15,2013-07-14 04:02:00,
2013-07-13 23:04:00,83.5,60.5,29.83,SSW,198,2.0,4.0,46,0.00,,,0.00,Wunderground v.1.15,2013-07-14 04:04:00,
2013-07-13 23:06:00,83.5,60.5,29.83,South,184,2.0,4.0,46,0.00,,,0.00,Wunderground v.1.15,2013-07-14 04:06:00,
2013-07-13 23:08:00,83.4,60.4,29.83,South,188,3.0,4.0,46,0.00,,,0.00,Wunderground v.1.15,2013-07-14 04:08:00,
2013-07-13 23:14:00,83.0,60.7,29.83,South,176,3.0,4.0,47,0.00,,,0.00,Wunderground v.1.15,2013-07-14 04:14:00,
2013-07-13 23:16:00,83.0,60.7,29.83,SSW,204,3.0,4.0,47,0.00,,,0.00,Wunderground v.1.15,2013-07-14 04:16:00,
2013-07-13 23:22:00,83.2,60.9,29.83,SSE,164,3.0,4.0,47,0.00,,,0.00,Wunderground v.1.15,2013-07-14 04:22:00,
2013-07-13 23:28:00,83.0,60.7,29.83,SSE,166,3.0,4.0,47,0.00,,,0.00,Wunderground v.1.15,2013-07-14 04:28:00,
2013-07-13 23:34:00,82.4,60.7,29.84,SSE,162,2.0,4.0,48,0.00,,,0.00,Wunderground v.1.15,2013-07-14 04:34:00,
2013-07-13 23:40:00,81.9,60.9,29.84,South,183,2.0,4.0,49,0.00,,,0.00,Wunderground v.1.15,2013-07-14 04:40:00,
2013-07-13 23:46:00,81.6,61.2,29.84,South,184,2.0,4.0,50,0.00,,,0.00,Wunderground v.1.15,2013-07-14 04:46:00,
2013-07-13 23:52:00,81.5,61.1,29.84,SSW,203,2.0,4.0,50,0.00,,,0.00,Wunderground v.1.15,2013-07-14 04:52:00,
2013-07-13 23:58:00,81.5,61.1,29.84,SSE,160,2.0,4.0,50,0.00,,,0.00,Wunderground v.1.15,2013-07-14 04:58:00,